Lodi South

20 Stations

Daily Data
as of 2/23/20 5:19 PM PST
Station Date Daily Max Temp (°F) Max Temp Time Daily Min Temp (°F) Min Temp Time Dew Pt (°F) Max RH (%) Min RH (%) Wind Spd (mph) Wind Dir (°) Daily Max Wind (mph) Max Wind Time Daily Rain (In) Seasonal Rainfall (In) Daily ETo (in) Daily Solar Rad (Cal/cm2) Powdery Mildew Stress (pts)
Borden Hills 2/22/20 73.7   0.6 1458 44.1   5.2 0001 43.3   1.5 94   1 30   3 5.2   1.6 WSW | 239 18.5   4.7 1243 0.00 5.60 0.138   0.027 379   26 0   0
Clay Station (CLA) 12/17/19 57.8   1.8 1412 36.2   6.4 0347 35.8   1.6 96   2 28   30 1.7   0.2 NNE | 19 9.8   0.5 1423 0.00 2.95 0.018   0.022 132   105 0   0
Collegeville (COL) 2/22/20 74.0   1.5 1350 48.2   12.3 2304 39.9   1.6 86   10 20   7 5.2   1.6 WNW | 283 19.0   0.9 1533 0.00 6.30 0.140   0.025 369   26 0   0
Galt-East (EGT) 2/22/20 72.7   0.8 1428 41.7   6.2 2357 40.9   2.1 94   1 26   2 4.0   1.4 SW | 232 17.8   2.2 1452 0.00 5.52 0.126   0.024 365   29 0   0
Escalon (ESL) 2/22/20 75.2   3.8 1524 43.8   5.2 2337 40.2   0.8 97   3 19   11 3.4   0.8 NW | 310 16.3   5.2 1421 0.00 5.22 - - 0   0
Victor - N (Katusha) 2/22/20 72.2   1.0 1451 42.8   6.4 2344 38.3   0.9 96   3 23   2 3.7   1.5 - 14.8   0.3 1602 0.00 4.42 - - 0   0
Teresi-Alpine Rd (East Lodi) 2/22/20 74.6   1.9 1421 42.1   5.1 2355 39.8   1.2 96   0 22   5 4.1   1.4 W | 265 17.1   4.0 1532 0.00 5.50 0.140   0.030 387   39 0   0
Gilbeau Ranch 2/22/20 72.0   1.0 1423 41.9   6.8 2359 39.6   1.6 94   2 23   1 3.6   1.8 WSW | 251 14.9   0.9 1442 0.00 5.27 0.124   0.026 377   32 0   0
Lodi 8/31/19 96.7   5.8 1613 51.4   1.3 0616 54.1   2.2 - - 1.1   0.8 - 8.3   0.3 1242 0.00 0.00 0.185   0.012 560   3 0   10
Linden (LIN) 2/22/20 72.8   0.1 1429 48.7   14.5 2231 39.3   1.6 83   15 21   6 3.7   1.2 W | 260 15.2   1.8 1437 0.00 5.99 - - 0   0
Live Oak (LIV) 2/22/20 72.9   0.6 1436 43.0   5.2 2357 39.3   1.0 91   1 23   3 3.8   1.1 W | 260 18.6   6.8 1636 0.00 5.90 0.129   0.027 360   35 0   0
Lockeford (LOC) 2/22/20 73.0   1.3 1433 42.1   6.4 2355 - - - 4.3   1.5 WSW | 258 17.2   2.5 1515 0.00 5.21 0.161   0.039 355   27 0   0
Lone Oak-L28 2/22/20 71.6   0.2 1531 40.6   7.5 2348 41.1   1.5 96   2 28   4 4.4   1.5 W | 260 15.9   2.1 1459 0.00 5.91 - 0   0 0   0
Colony 1 2/22/20 78.1   2.8 1445 41.8   7.3 0100 41.7   2.6 94   6 24   1 4.1   1.9 SW | 229 17.3   5.2 1241 0.00 6.03 0.136   0.016 402   1 0   0
Colony 2 2/22/20 78.7   4.4 1350 43.1   8.8 2345 42.5   3.3 92   4 27   6 4.9   2.1 SW | 228 17.3   4.6 1217 0.00 5.69 0.137   0.016 380   9 0   0
Sheldon (SHL) 2/22/20 72.0   1.1 1458 42.2   8.4 0444 40.4   3.0 91   5 25   0 4.7   1.6 SW | 221 16.8   3.7 1521 0.00 6.13 0.126   0.009 372   2 0   0
Sierra Loma-L27 2/22/20 72.6   0.8 1445 44.4   6.9 2359 41.9   1.4 93   0 28   3 4.6   1.2 WSW | 254 20.0   4.5 1244 0.00 5.67 - - 0   0
Simmerhorn (SIM) 2/22/20 71.1   1.5 1429 40.8   5.2 2347 39.0   1.6 97   0 26   1 - - - - - - - - 0   0
Sloughhouse (SLH) 2/22/20 72.6   0.9 1519 39.3   6.3 0101 35.0   1.2 50   0 50   0 1.9   0.8 WSW | 239 13.8   1.7 1416 0.00 6.66 0.075   0.008 218   1 0   0
5 Wells 2/22/20 72.1   0.2 1416 42.0   7.2 2347 40.0   1.3 95   2 25   0 5.4   2.2 SW | 233 19.2   5.8 1303 0.00 5.10 0.118   0.029 230   24 0   0
Max   78.7 - 48.7 - 43.3 97 50 5.4 - 20.0 - 0.00 - 0.161 402 0
Avg   - - - - 40.1 - - 4.2 - - - - - - - -
Min   71.1 - 39.3 - 35.0 50 19 1.9 - 13.8 - 0.00 - 0.075 0 0